loading
DOY 175 | 2024-06-23T12:06:30Z

STARLINK-31301, 59935

Orbit data source: Space-Track

STARLINK-31301, 59935 is a payload satellite owned by SpaceX/Seattle (US) in LEO that was launched on Sat, 01 Jun 2024 UTC via a Falcon 9 launch vehicle from the Air Force Eastern Test Range (AFETR). Payloads include a variety of satellites, spacecraft, and rockets equipped with specific instruments for various scientific and technological missions. These include communications satellites like Starlink; space stations such as the ISS; scientific satellites like the Hubble; Earth observation satellites from companies like Planet Labs, Umbra, and HawkEye 360; GPS; miniature CubeSats for education and research; and military/defense satellites.

Loading next visibility...
Loading greatness...
STARLINK-31301 details
NORAD ID59935
COSPAR ID
2024-106P
Orbit
LEO
Last TLE update17 hours ago
Origin
Flag of USSpaceX/Seattle (US)
ManufacturerSpaceX/Seattle
BusStarlink V2M
MotorUnknown
Mass750 kg wet, ~700 kg dry
Launch date (UTC)
2024-06-01 (3 weeks ago)
Launch vehicle
Falcon 9
Launch site
Air Force Eastern Test Range (AFETR)
Object type
Payload
Rocket body
Debris
Radar Cross SectionLarge (>1 m²)
Predictive object data (real-time)
Latitude-30.91812°
Longitude44.04685°
Altitude352.75 km
Speed7.699 km/s
Apparent Right ascension14h 11m 17s
Apparent Declination-42° 33' 45"
Sunlit
Object is in full shadow
Predictive observer data (real-time)
Local Sidereal Time23:14:38
Azimuth250.695° W
Elevation-57.062°
Doppler factor1
Orbital elements
Apogee350.124 km
Perigee346.525 km
Semi-major axis6,726.461 km
Eccentricity0.0002675
Inclination43.0002°
RAAN292.8906°
Arg. of periapsis287.224°
True anomaly72.86289°
Mean anomaly72.8336°
Mean motion3.93426 °/min
BSTAR0.00043803
Period91.5 mins
Definitive object data (Epoch: 2024-06-22T19:34:00.154Z)
Latitude-0.00004°
Longitude87.91671°
Altitude345.58 km
Speed7.704 km/s
True Right ascension19h 31m 33s
True Declination0° 00' 00"
Sunlit
Object was in full shadow at TLE epoch
TLE from 17 hours ago
0 STARLINK-31301
1 59935U 24106P   24174.81527957  .00065482  00000-0  43803-3 0  9992
2 59935  43.0002 292.8906 0002675 287.2240  72.8336 15.74399732  4646
Epoch: 2024-06-22T19:34Z
No data available

STARLINK-31301 Visibility forecast

Observer location: 39.9160978°, -105.1181434, 0m alt.

STARLINK-31301 is not visible in the next 10 days
Span
Click to sort rows by Start time (UTC) header in descending order
Start Az.
Max El. time (UTC)
Max El. Az.
Max El.
End time (UTC)
End Az.